Location: Praha
(50.0830°N, 14.4670°E)
Time: 17:32:49
(UTC+01:00)

ISS - Pass Details

Date: 10 November 2018
Orbit: 401 x 408 km, 51.6° (Epoch: 20 November)

Event Time Altitude Azimuth Distance (km) Brightness Sun altitude
Exits shadow 04:25:39 27° 92° (E) 819 -1.7 -25.9°
Drops below altitude 10° 04:27:17 10° 97° (E) 1,463 0.0 -25.6°
Sets 04:29:23 0° 99° (E) 2,324 1.3 -25.3°
